This demonstration page uses our WeatherBlox Daily Observations layout. Learn more.

Left ArrowRight Arrow

Hourly Observations for December 1, 2020

Temp ( °F °C ) Dew Point ( °F °C ) Humidity (%) Winds ( mph kmh ) Pressure ( in mb ) Visibility ( mi km ) Precip ( " mm )
12:54 am 00:54 Clear 26 -3.3 12 -11.1 55 55 Calm 30.08 1019 10 16.0934 0 0
1:54 am 01:54 Clear 21 -6.1 13 -10.6 71 71 SE 5 7 30.06 1018 10 16.0934 0 0
2:54 am 02:54 Clear 24 -4.4 13 -10.6 62 62 S 5 7 30.05 1018 10 16.0934 0 0
3:54 am 03:54 Clear 24 -4.4 13 -10.6 62 62 S 3 6 30.05 1018 10 16.0934 0 0
4:54 am 04:54 Clear 21 -6.1 12 -11.1 68 68 Calm 30.04 1017 10 16.0934 0 0
5:54 am 05:54 Clear 17 -8.3 11 -11.7 77 77 Calm 30.05 1018 10 16.0934 0 0
6:54 am 06:54 Clear 16 -8.9 9 -12.8 74 74 Calm 30.05 1018 10 16.0934 0 0
7:54 am 07:54 Sunny 15 -9.4 9 -12.8 77 77 Calm 30.04 1017 10 16.0934 0 0
8:54 am 08:54 Sunny 24 -4.4 16 -8.9 71 71 NNW 5 7 30.07 1018 10 16.0934 0 0
9:54 am 09:54 Sunny 31 -0.6 19 -7.2 61 61 Calm 30.06 1018 10 16.0934 0 0
10:54 am 10:54 Sunny 38 3.3 19 -7.2 46 46 SE 8 13 30.06 1018 10 16.0934 0 0
11:54 am 11:54 Sunny 42 5.6 20 -6.7 41 41 SE 8 13 30.03 1017 10 16.0934 0 0
12:54 pm 12:54 Sunny 47 8.3 21 -6.1 36 36 SSE 12 19 30.01 1016 10 16.0934 0 0
1:54 pm 13:54 Sunny 49 9.4 20 -6.7 32 32 SE 9 15 30.01 1016 10 16.0934 0 0
2:54 pm 14:54 Sunny 48 8.9 21 -6.1 34 34 SSE 12 19 30.01 1016 10 16.0934 0 0
3:54 pm 15:54 Sunny 49 9.4 21 -6.1 33 33 SE 12 19 30.03 1017 10 16.0934 0 0
4:54 pm 16:54 Sunny 44 6.7 21 -6.1 40 40 ESE 8 13 30.06 1018 10 16.0934 0 0
5:54 pm 17:54 Clear 39 3.9 20 -6.7 46 46 ESE 3 6 30.1 1019 10 16.0934 0 0
6:54 pm 18:54 Clear 37 2.8 20 -6.7 50 50 ESE 3 6 30.12 1020 10 16.0934 0 0
7:54 pm 19:54 Clear 34 1.1 20 -6.7 56 56 Calm 30.15 1021 10 16.0934 0 0
8:54 pm 20:54 Clear 31 -0.6 19 -7.2 61 61 Calm 30.16 1021 10 16.0934 0 0
9:54 pm 21:54 Clear 26 -3.3 18 -7.8 71 71 N 3 6 30.17 1022 10 16.0934 0 0
10:54 pm 22:54 Clear 24 -4.4 18 -7.8 77 77 N 8 13 30.19 1022 10 16.0934 0 0
11:54 pm 23:54 Clear 25 -3.9 18 -7.8 75 75 N 8 13 30.21 1023 10 16.0934 0 0

Powered by AerisWeather